Regional Weather Roundup
Issued by NWS

Home | Current Version | Previous Version | Text Only | Print | Product List | Glossary On
Versions: 1 2 3 4 5 6 7 8 9 10 11 12 13 14 15 16 17 18 19 20 21 22 23 24 25 26 27 28 29 30 31 32 33 34 35 36 37 38 39 40 41 42 43 44 45 46 47 48 49 50
000
ASUS43 KMPX 232110
RWRMN
WEATHER ROUNDUP FOR MINNESOTA
NATIONAL WEATHER SERVICE TWIN CITIES/CHANHASSEN MN
400 PM CDT THU MAR 23 2017


NOTE: "FAIR" INDICATES FEW OR NO CLOUDS BELOW 12,000 FEET WITH NO
SIGNIFICANT WEATHER AND/OR OBSTRUCTIONS TO VISIBILITY. N/A MEANS
CURRENT SKY AND/OR WEATHER CONDITIONS ARE NOT AVAILABLE.

MNZ060>063-068>070-232200-
   Twin Cities Metro

CITY           SKY/WX    TMP DP  RH WIND       PRES   REMARKS
TWIN CITIES    CLOUDY    39  28  64 SE10      29.92F
ST PAUL        CLOUDY    40  29  64 SE9       29.95F
CRYSTAL        LGT RAIN  39  28  64 SE14      29.89F
BLAINE         CLOUDY    41  30  65 SE10      29.93F
LAKEVILLE      CLOUDY    36  32  87 E10       29.90F
EDEN PRAIRIE   CLOUDY    40  30  67 SE14      29.88F
SOUTH ST PAUL  CLOUDY    40  29  65 SE7       29.94F
LAKE ELMO      CLOUDY    39  30  70 SE7       29.97R
$$
MNZ001>005-007-008-013>017-022>024-027-028-232200-
   Northwest Minnesota

CITY           SKY/WX    TMP DP  RH WIND       PRES   REMARKS
BEMIDJI        CLOUDY    35  32  89 E7        29.83F WCI  29
HALLOCK        CLOUDY    36  34  93 S10       29.79S FOG
ROSEAU         CLOUDY    37  34  87 S12       29.80F
WARROAD        CLOUDY    37  34  87 S10       29.81F
THIEF RVR FALL RAIN     N/A N/A N/A S12       29.82F
CROOKSTON      MIX PCPN  34  34 100 SE9       29.81F WCI  26
FOSSTON        CLOUDY    37  36  93 E3        29.82F
DETROIT LAKES  DRIZZLE   36  32  87 S15       29.82S
MOORHEAD       CLOUDY    37  32  81 SE14G21   29.81F
PARK RAPIDS    LGT RAIN  37  27  67 SE9       29.82F
MAHNOMEN       CLOUDY    39  28  65 S6        29.81F
$$
MNZ006-009>011-018-025>026-232200-
   North Central Minnesota

CITY           SKY/WX    TMP DP  RH WIND       PRES   REMARKS
BAUDETTE       LGT RAIN  35  32  88 S13       29.82F WCI  26
FLAG ISLAND    CLOUDY    34  30  86 S14       29.80F WCI  24
INTL FALLS     LGT RAIN  34  30  85 S3        29.87S FOG
WASKISH        DRIZZLE   34  32  93 SE8       29.86F WCI  27
BIG FORK       MIX PCPN  34  30  86 S5        29.88F WCI  30
LONGVILLE      DRIZZLE   37  27  65 S6        29.85F
GRAND RAPIDS   LGT RAIN  36  28  73 S7        29.90S
CRANE LAKE     LGT SNOW  32  28  86 S6        29.93S WCI  26
ORR            LGT RAIN  32  28  86 CALM      29.87F
COOK           LGT SNOW  32  30  93 CALM      29.90F
WALKER         DRIZZLE   36  28  75 S8        29.85F
$$
MNZ012-019>021-037-232200-
   Northeast Minnesota

CITY           SKY/WX    TMP DP  RH WIND       PRES   REMARKS
DULUTH         CLOUDY    34  27  75 S12       29.91F WCI  25
ELY            MIX PCPN  32  28  86 S3        29.91F
HIBBING        MIX PCPN  32  30  92 SE3       29.90F
EVELETH        MIX PCPN  33  29  83 CALM      29.91F
DULUTH HARBOR  CLOUDY    37  28  70 CALM      29.96R
TWO HARBORS    DRIZZLE   37  30  75 S3        29.92F
SILVER BAY     LGT RAIN  34  30  86 CALM      29.92F
GRAND MARAIS     N/A     34  30  85 S3        29.98F
G MARAIS ARPRT MIX PCPN  28  21  74 S9        29.93F WCI  20
$$
MNZ029>031-032-039>041-046>048-054>057-064-232200-
   West Central Minnesota

CITY           SKY/WX    TMP DP  RH WIND       PRES   REMARKS
FERGUS FALLS   CLOUDY    36  36 100 SE8       29.85F FOG
WHEATON        DRIZZLE   37  36  93 E9        29.80F
MORRIS         CLOUDY    37  34  87 SE14      29.80R FOG
ALEXANDRIA     CLOUDY    36  30  79 SE13      29.81F
ELBOW LAKE     DRIZZLE   34  34  99 CALM      29.81F
WADENA         DRIZZLE   36  28  75 SE10G17   29.84S
GLENWOOD       LGT RAIN  36  30  80 SE12      29.82F
APPLETON       DRIZZLE   37  36  93 CALM      29.81S
BENSON         CLOUDY    39  34  81 SE8       29.83F
ORTONVILLE     CLOUDY    37  34  87 SE13      29.78F FOG
MADISON        DRIZZLE   39  39 100 SE12      29.79S
WILLMAR        CLOUDY    37  36  93 SE14G23   29.83R
$$
MNZ033>034-036-042>043-049>051-058-059-232200-
   Central Minnesota

CITY           SKY/WX    TMP DP  RH WIND       PRES   REMARKS
ST CLOUD       CLOUDY    36  31  82 VRB6      29.87F
SAUK CENTRE    LGT RAIN  36  29  77 SE8       29.84F
PAYNESVILLE      N/A     37  32  82 SE8G17    29.84R
AITKIN         CLOUDY    39  25  56 SE9G16    29.88F
PINE RIVER     CLOUDY    37  27  65 SE8       29.89F
BRAINERD       CLOUDY    38  25  59 S8        29.88F
STAPLES        DRIZZLE   36  28  75 SE8       29.82F
LONG PRAIRIE   CLOUDY    36  28  75 E8        29.84F
LITTLE FALLS   CLOUDY    37  27  65 SE6       29.87F
LITCHFIELD     CLOUDY    37  34  87 SE16      29.83F
BUFFALO        CLOUDY    37  31  77 SE17G25   29.85F HAZE
MAPLE LAKE     CLOUDY    39  32  76 SE16G24   29.84F
HUTCHINSON     CLOUDY    37  34  91 SE15      29.85F
$$
MNZ037-044-045-052-053-232200-
   East Central Minnesota

CITY           SKY/WX    TMP DP  RH WIND       PRES   REMARKS
PRINCETON      CLOUDY    37  34  87 CALM      29.87F
MORA           LGT RAIN  36  28  75 E8G26     29.80F
CAMBRIDGE      LGT RAIN  37  28  70 SE12      29.80F
RUSH CITY      RAIN      36  30  79 E9        29.90F
MOOSE LAKE     CLOUDY    37  25  60 S7        29.89F
HINCKLEY       DRIZZLE   37  30  75 SE12      29.91F
CLOQUET        LGT RAIN  36  27  69 S5        29.91S
MCGREGOR       CLOUDY    36  30  80 S6        29.90S
$$
MNZ071>073-080-081-089-090-097-098-232200-
   Southwest Minnesota

CITY           SKY/WX    TMP DP  RH WIND       PRES   REMARKS
MONTEVIDEO     LGT RAIN  37  34  87 S10G17    29.83R
GRANITE FALLS  LGT RAIN  40  35  83 SE17G23   29.82R
CANBY          DRIZZLE   40  38  93 E12       29.78R
MARSHALL       LGT RAIN  39  37  93 SE12      29.79R
REDWOOD FALLS  LGT RAIN  40  32  73 SE20G25   29.82S
OLIVIA         PTSUNNY   37  32  81 SE18      29.84R
PIPESTONE      CLOUDY    43  36  75 S12       29.72F
WINDOM         PTSUNNY   39  34  81 SE15G24   29.80F
WORTHINGTON    CLOUDY    42  36  79 SE20G30   29.74F
JACKSON        CLOUDY    39  32  75 SE16      29.74F
TRACY          DRIZZLE   39  37  93 SE15G21   29.77F
SLAYTON        CLOUDY    38  36  92 SE15      29.75F
$$
MNZ065>067-074>077-082>085-091>093-232200-
   South Central Minnesota

CITY           SKY/WX    TMP DP  RH WIND       PRES   REMARKS
MANKATO        CLOUDY    39  30  70 SE16      29.89R
NEW ULM        CLOUDY    39  30  70 SE17      29.84S
ST JAMES       DRIZZLE   39  34  81 SE16G22   29.86R
FAIRMONT       CLOUDY    39  33  79 S20       29.85R
GLENCOE        CLOUDY    37  34  89 SE20      29.86F FOG
FARIBAULT      CLOUDY    37  32  81 SE10G18   29.92F
OWATONNA       CLOUDY    37  30  75 SE12      29.91S
WASECA         CLOUDY    36  30  80 SE14G20   29.92R
ALBERT LEA     LGT RAIN  37  32  81 S17       29.88R
$$
MNZ078>079-086>088-094>096-232200-
   Southeast Minnesota

CITY           SKY/WX    TMP DP  RH WIND       PRES   REMARKS
ROCHESTER      CLOUDY    38  31  76 S15G22    29.93R
RED WING       CLOUDY    43  27  52 S10       29.94F
STANTON        CLOUDY    39  32  76 SE6       29.90F
DODGE CENTER   CLOUDY    37  32  81 SE17G29   29.90F
WINONA         CLOUDY    43  28  56 SW5G23    29.97R
AUSTIN         LGT RAIN  37  34  87 SE13G22   29.88R
PRESTON        CLOUDY    37  31  79 S14       29.92R
$$
ABBREVIATIONS USED IN REMARKS
   TC - TEMPERATURES IN CELSIUS
  WCI - WIND CHILL INDEX
   HX - HEAT INDEX
  VSB - VISIBILITY
$$



USA.gov is the U.S. government's official web portal to all federal, state and local government web resources and services.